Adelanto, California, United States (92301)
Lat: 34.58N, Lon: 117.41W
Wx Zone: CAZ060
Local Info
Past Weather Observations for Yesterday

NOTE: This archive is for the closest National Weather Service station to Adelanto. Information may differ from the station used for current weather conditions.

Click here for Long-term Archive

Time Weather Temperature Dewpoint Humidity Pressure Winds Precip Visibility
23:55
Fair
41°F / 5°C 34°F / 1°C 76% 29.92 in
(1013 mb)
Calm - 10SM
23:35
Clear
39°F / 4°C 34°F / 1°C 81% 29.92 in
(1013 mb)
Calm - 10SM
23:15
Clear
43°F / 6°C 34°F / 1°C 71% 29.89 in
(1012 mb)
Calm - 10SM
22:55
Clear
43°F / 6°C 34°F / 1°C 71% 29.89 in
(1012 mb)
Calm - 10SM
22:35
Clear
43°F / 6°C 34°F / 1°C 71% 29.89 in
(1012 mb)
Calm - 10SM
22:15
Partly Cloudy
45°F / 7°C 34°F / 1°C 66% 29.89 in
(1012 mb)
S 4.6 mph
(S 7 kph)
- 10SM
21:55
Partly Cloudy
45°F / 7°C 34°F / 1°C 66% 29.89 in
(1012 mb)
S 11.5 mph
(S 19 kph)
- 10SM
21:35
Partly Cloudy
45°F / 7°C 34°F / 1°C 66% 29.89 in
(1012 mb)
S 16.1 mph
(S 26 kph)
- 10SM
21:15
Clear
45°F / 7°C 34°F / 1°C 66% 29.86 in
(1011 mb)
S 15 mph
(S 24 kph)
- 10SM
20:55
Partly Cloudy
45°F / 7°C 34°F / 1°C 66% 29.86 in
(1011 mb)
S 17.3 mph
(S 28 kph)
- 10SM
20:35
Partly Cloudy
46°F / 8°C 34°F / 1°C 62% 29.86 in
(1011 mb)
S 13.8 mph
(S 22 kph)
- 10SM
20:15
Clear
45°F / 7°C 34°F / 1°C 66% 29.83 in
(1010 mb)
Calm - 10SM
19:55
Clear
46°F / 8°C 34°F / 1°C 62% 29.83 in
(1010 mb)
S 17.3 mph
(S 28 kph)
- 10SM
19:35
Clear
46°F / 8°C 34°F / 1°C 62% 29.83 in
(1010 mb)
S 13.8 mph
(S 22 kph)
- 10SM
19:15
Clear
46°F / 8°C 34°F / 1°C 62% 29.83 in
(1010 mb)
S 16.1 mph
(S 26 kph)
- 10SM
18:55
Partly Cloudy
46°F / 8°C 34°F / 1°C 62% 29.83 in
(1010 mb)
S 16.1 mph
(S 26 kph)
- 10SM
18:35
Mostly Cloudy
46°F / 8°C 34°F / 1°C 62% 29.8 in
(1009 mb)
S 18.4 mph
(S 30 kph)
- 10SM
18:15
Mostly Cloudy
48°F / 9°C 36°F / 2°C 62% 29.8 in
(1009 mb)
S 16.1 mph
(S 26 kph)
- 10SM
17:55
Overcast
48°F / 9°C 36°F / 2°C 62% 29.8 in
(1009 mb)
S 17.3 mph
(S 28 kph)
- 10SM
17:35
Overcast
48°F / 9°C 36°F / 2°C 62% 29.8 in
(1009 mb)
S 23 mph
(S 37 kph)
- 10SM
17:15
Partly Cloudy
48°F / 9°C 36°F / 2°C 62% 29.8 in
(1009 mb)
S 23 mph
(S 37 kph)
- 10SM
16:55
Partly Cloudy
52°F / 11°C 34°F / 1°C 50% 29.77 in
(1008 mb)
S 21.9 mph
(S 35 kph)
- 10SM
16:35
Partly Cloudy
54°F / 12°C 28°F / -2°C 38% 29.77 in
(1008 mb)
S 19.6 mph
(S 32 kph)
- 10SM
16:15
Clear
55°F / 13°C 27°F / -3°C 33% 29.77 in
(1008 mb)
SSE 18.4 mph
(SSE 30 kph)
- 10SM
15:35
Clear
55°F / 13°C 25°F / -4°C 31% 29.77 in
(1008 mb)
SW 10.4 mph
(SW 17 kph)
- 10SM
15:15
Clear
55°F / 13°C 25°F / -4°C 31% 29.77 in
(1008 mb)
SW 13.8 mph
(SW 22 kph)
- 10SM
14:55
Partly Cloudy
57°F / 14°C 25°F / -4°C 29% 29.77 in
(1008 mb)
SW 17.3 mph
(SW 28 kph)
- 10SM
14:35
Mostly Cloudy
55°F / 13°C 23°F / -5°C 28% 29.77 in
(1008 mb)
SSW 13.8 mph
(SSW 22 kph)
- 10SM
14:15
Mostly Cloudy
55°F / 13°C 25°F / -4°C 31% 29.77 in
(1008 mb)
SSW 13.8 mph
(SSW 22 kph)
- 10SM
13:55
Mostly Cloudy
55°F / 13°C 27°F / -3°C 33% 29.77 in
(1008 mb)
SW 11.5 mph
(SW 19 kph)
- 10SM
13:35
Mostly Cloudy
54°F / 12°C 27°F / -3°C 35% 29.77 in
(1008 mb)
S 18.4 mph
(S 30 kph)
- 10SM
13:15
Partly Cloudy
57°F / 14°C 25°F / -4°C 29% 29.77 in
(1008 mb)
SSW 13.8 mph
(SSW 22 kph)
- 10SM
12:55
Partly Cloudy
57°F / 14°C 23°F / -5°C 27% 29.77 in
(1008 mb)
SSW 12.7 mph
(SSW 20 kph)
- 10SM
12:35
Mostly Cloudy
55°F / 13°C 30°F / -1°C 38% 29.77 in
(1008 mb)
SW 10.4 mph
(SW 17 kph)
- 10SM
12:15
Mostly Cloudy
55°F / 13°C 32°F / 0°C 41% 29.77 in
(1008 mb)
S 18.4 mph
(S 30 kph)
- 10SM
11:55
Partly Cloudy
55°F / 13°C 34°F / 1°C 44% 29.77 in
(1008 mb)
S 21.9 mph
(S 35 kph)
- 10SM
11:35
Mostly Cloudy
54°F / 12°C 34°F / 1°C 47% 29.8 in
(1009 mb)
SSE 19.6 mph
(SSE 32 kph)
- 10SM
11:15
Mostly Cloudy
54°F / 12°C 32°F / 0°C 44% 29.8 in
(1009 mb)
SSE 11.5 mph
(SSE 19 kph)
- 10SM
10:55
Mostly Cloudy
52°F / 11°C 34°F / 1°C 50% 29.8 in
(1009 mb)
SW 13.8 mph
(SW 22 kph)
- 10SM
10:35
Overcast
54°F / 12°C 34°F / 1°C 47% 29.8 in
(1009 mb)
S 18.4 mph
(S 30 kph)
- 10SM
10:15
Overcast
52°F / 11°C 34°F / 1°C 50% 29.8 in
(1009 mb)
SW 12.7 mph
(SW 20 kph)
- 10SM
09:55
Mostly Cloudy
48°F / 9°C 36°F / 2°C 62% 29.8 in
(1009 mb)
SSE 12.7 mph
(SSE 20 kph)
- 10SM
09:35
Partly Cloudy
46°F / 8°C 36°F / 2°C 66% 29.8 in
(1009 mb)
SW 8.1 mph
(SW 13 kph)
- 10SM
09:15
Mostly Cloudy
48°F / 9°C 36°F / 2°C 62% 29.8 in
(1009 mb)
SW 5.8 mph
(SW 9 kph)
- 10SM
08:55
Mostly Cloudy
48°F / 9°C 36°F / 2°C 62% 29.8 in
(1009 mb)
W 9.2 mph
(W 15 kph)
- 10SM
08:35
Mostly Cloudy
48°F / 9°C 36°F / 2°C 62% 29.8 in
(1009 mb)
SSW 11.5 mph
(SSW 19 kph)
- 10SM
08:15
Partly Cloudy
46°F / 8°C 36°F / 2°C 66% 29.77 in
(1008 mb)
SSW 9.2 mph
(SSW 15 kph)
- 10SM
07:55
Mostly Cloudy
46°F / 8°C 34°F / 1°C 62% 29.77 in
(1008 mb)
SSW 16.1 mph
(SSW 26 kph)
- 10SM
07:35
Mostly Cloudy
45°F / 7°C 36°F / 2°C 71% 29.77 in
(1008 mb)
SW 13.8 mph
(SW 22 kph)
- 10SM
07:15
Clear
43°F / 6°C 34°F / 1°C 71% 29.77 in
(1008 mb)
SW 11.5 mph
(SW 19 kph)
- 10SM
06:55
Partly Cloudy
43°F / 6°C 36°F / 2°C 76% 29.74 in
(1007 mb)
SSW 6.9 mph
(SSW 11 kph)
- 10SM
06:35
Overcast
43°F / 6°C 36°F / 2°C 76% 29.74 in
(1007 mb)
SW 8.1 mph
(SW 13 kph)
- 10SM
06:15
Overcast
43°F / 6°C 36°F / 2°C 76% 29.74 in
(1007 mb)
SW 5.8 mph
(SW 9 kph)
- 10SM
05:55
Mostly Cloudy
43°F / 6°C 36°F / 2°C 76% 29.74 in
(1007 mb)
SW 6.9 mph
(SW 11 kph)
- 10SM
05:35
Partly Cloudy
43°F / 6°C 36°F / 2°C 76% 29.74 in
(1007 mb)
SW 5.8 mph
(SW 9 kph)
- 10SM
05:15
Mostly Cloudy
45°F / 7°C 36°F / 2°C 71% 29.74 in
(1007 mb)
SW 6.9 mph
(SW 11 kph)
- 10SM
04:55
Partly Cloudy
45°F / 7°C 37°F / 3°C 76% 29.74 in
(1007 mb)
SW 6.9 mph
(SW 11 kph)
- 10SM
04:35
Partly Cloudy
45°F / 7°C 37°F / 3°C 76% 29.71 in
(1006 mb)
SW 9.2 mph
(SW 15 kph)
- 10SM
04:15
Mostly Cloudy
46°F / 8°C 37°F / 3°C 71% 29.71 in
(1006 mb)
SW 10.4 mph
(SW 17 kph)
- 10SM
03:55
Overcast
46°F / 8°C 37°F / 3°C 71% 29.71 in
(1006 mb)
SSW 10.4 mph
(SSW 17 kph)
- 10SM
03:35
Overcast
46°F / 8°C 37°F / 3°C 71% 29.71 in
(1006 mb)
SW 9.2 mph
(SW 15 kph)
- 10SM
03:15
Overcast
46°F / 8°C 37°F / 3°C 71% 29.71 in
(1006 mb)
SSW 4.6 mph
(SSW 7 kph)
- 10SM
02:55
Mostly Cloudy
45°F / 7°C 37°F / 3°C 76% 29.71 in
(1006 mb)
SSW 5.8 mph
(SSW 9 kph)
- 10SM
02:35
Mostly Cloudy
46°F / 8°C 37°F / 3°C 71% 29.71 in
(1006 mb)
SW 3.5 mph
(SW 6 kph)
- 10SM
02:15
Overcast
46°F / 8°C 39°F / 4°C 76% 29.71 in
(1006 mb)
SW 5.8 mph
(SW 9 kph)
- 10SM
01:55
Mostly Cloudy
45°F / 7°C 39°F / 4°C 81% 29.71 in
(1006 mb)
SW 3.5 mph
(SW 6 kph)
- 10SM
01:35
Partly Cloudy
46°F / 8°C 39°F / 4°C 76% 29.71 in
(1006 mb)
SW 6.9 mph
(SW 11 kph)
- 10SM
01:15
Partly Cloudy
45°F / 7°C 41°F / 5°C 87% 29.71 in
(1006 mb)
SW 6.9 mph
(SW 11 kph)
- 10SM
00:55
Mostly Cloudy
46°F / 8°C 41°F / 5°C 82% 29.71 in
(1006 mb)
SW 3.5 mph
(SW 6 kph)
- 10SM
00:35
Mostly Cloudy
45°F / 7°C 41°F / 5°C 87% 29.71 in
(1006 mb)
SW 4.6 mph
(SW 7 kph)
- 10SM
00:15
Partly Cloudy
45°F / 7°C 41°F / 5°C 87% 29.71 in
(1006 mb)
SW 4.6 mph
(SW 7 kph)
- 10SM
Time Weather Temperature Dewpoint Humidity Pressure Winds Precip Visibility


Weather for websites

WeatherForYou.com, LLC is not responsible for any damages or problems caused by this service. Current weather conditions are obtained from the closest station including government and personal stations which may have varying degrees of accuracy. Weather forecasts are derived from the NOAA NDFD. Like all things, this site belongs to Jesus Christ... He just trusts me to maintain it. If you have any questions or comments email webmaster@weatherforyou.com

Copyright © 2015, WeatherForYou.com LLC. All rights reserved.